Location: La Tine
(46.4708°N, 7.0525°E)
Time: 16:20:08
(UTC+00:00)

Lacrosse 5 rocket - Pass Details

Date: 18 September 2020
Orbit: 460 x 636 km, 57.0° (Epoch: 29 October)

Event Time Altitude Azimuth Distance (km) Brightness Sun altitude
Rises 21:26:43 0° 305° (NW) 2,846 5.9 -35.4°
Reaches altitude 10° 21:29:16 10° 319° (NW) 1,968 4.9 -35.7°
Enters shadow 21:30:46 18° 333° (NNW) 1,536 4.2 -35.9°
